GFSFLT1_700_rhum_102.txt.gz
RH
14 17 19 16 17 19 27 35 34 34 36 36 37 36 33 32 31 30 29 28 29 30 32 33 33 33 33 31 28 26 26 28 32
17 17 16 17 22 32 33 35 38 37 37 38 39 37 35 33 32 30 29 31 33 35 33 30 29 29 32 32 32 30 26 23 24
16 15 17 24 30 38 42 42 41 40 37 37 36 36 34 30 30 29 30 31 32 33 32 30 28 27 29 27 26 24 26 26 22
16 20 28 32 38 42 46 48 45 44 42 39 36 35 33 32 30 29 28 29 30 29 27 25 24 21 21 21 22 20 22 34 32
27 32 37 42 44 45 46 47 47 46 43 41 38 34 30 27 26 27 27 26 25 23 23 24 23 23 20 20 20 20 32 29 26
43 45 47 48 48 47 47 45 44 43 40 38 32 27 24 22 21 21 20 20 22 28 34 33 27 20 18 18 25 25 29 40 45
45 45 45 45 46 45 44 42 39 39 35 28 23 20 20 20 17 17 19 24 29 32 36 37 34 20 19 36 66 66 67 68 62
41 42 44 45 43 41 37 33 31 30 29 27 25 22 21 24 26 25 25 26 30 31 32 32 30 28 57 68 63 73 68 66 63
46 47 46 46 44 40 33 30 26 26 26 30 31 30 30 29 26 25 27 28 28 28 26 21 21 70 68 71 60 63 76 72 65
48 48 47 46 44 38 31 28 28 29 29 26 26 26 25 26 27 28 27 24 22 21 20 18 17 24 22 38 54 65 59 68 73
48 47 46 46 44 43 33 30 29 30 30 29 28 27 26 25 25 25 24 22 21 20 20 17 14 15 33 32 28 28 48 59 72
47 46 46 45 45 42 41 30 30 30 29 28 26 26 25 24 24 24 23 22 23 22 20 16 13 13 14 15 18 21 26 49 32
47 46 45 46 46 45 43 40 31 32 30 30 27 27 26 26 25 24 23 24 24 22 19 17 13 13 15 18 42 41 36 24 21
47 44 43 45 46 47 46 44 39 34 32 32 31 26 27 27 26 26 26 25 24 23 20 19 16 16 16 18 29 33 33 27 18
43 42 44 46 48 48 48 49 46 39 38 36 33 28 29 28 29 29 28 26 25 23 22 20 19 19 19 19 21 24 25 22 22
62 50 50 47 51 55 55 54 50 47 42 44 35 30 31 31 33 33 31 26 22 20 19 19 18 18 18 20 20 26 29 23 26
84 78 74 72 80 72 64 60 56 52 50 48 35 35 35 33 33 36 43 42 36 28 24 23 23 22 22 21 21 26 32 23 25
98 94 89 84 79 79 75 72 74 68 65 44 40 38 37 35 34 36 49 49 48 45 38 32 29 28 25 24 22 26 25 27 30
97 98 100 96 99 96 88 86 82 82 79 88 71 45 41 41 40 38 47 49 49 49 43 37 34 31 28 26 25 24 28 34 37
88 86 97 98 99 99 100 100 99 97 91 97 96 91 61 61 61 57 56 55 49 50 49 41 34 31 29 28 27 29 55 38 67

GFSFLT1_700_rhum_108.txt.gz
RH
17 15 15 18 16 13 12 15 20 23 24 27 31 31 28 28 26 28 30 31 30 26 23 21 19 17 16 15 13 12 13 18 18
18 15 18 19 15 14 18 23 24 24 25 31 34 34 31 28 27 29 30 28 27 24 20 18 18 16 14 13 12 12 13 18 20
16 16 19 17 17 22 26 26 27 28 30 31 32 33 31 29 29 28 28 26 23 19 19 21 19 16 15 13 13 13 14 20 24
16 18 17 18 26 30 31 30 31 31 32 32 32 32 32 31 27 28 25 22 18 20 27 30 27 18 14 13 15 38 33 31 36
19 18 18 26 32 36 37 37 36 36 36 36 34 30 27 26 24 24 21 19 21 26 29 31 27 22 16 18 39 48 46 43 45
19 18 24 32 37 41 43 42 40 38 38 36 33 27 24 22 17 18 18 20 25 27 27 26 22 17 16 28 47 43 49 45 38
16 20 31 38 41 44 46 45 42 40 34 29 26 21 18 18 16 18 23 24 24 25 26 23 20 16 15 33 40 41 36 34 40
17 29 34 42 46 48 47 45 43 40 37 29 24 23 20 22 25 26 24 25 26 23 20 20 20 17 20 17 20 19 20 22 24
27 34 45 48 48 47 44 41 39 34 30 26 27 29 29 27 24 25 26 26 24 22 20 20 20 28 37 33 17 19 17 19 21
36 46 47 46 44 44 44 43 38 32 29 28 28 26 27 27 26 25 25 24 23 21 21 20 20 18 27 39 22 17 18 18 21
45 45 43 45 46 46 44 42 38 33 31 31 31 30 30 29 28 25 23 24 23 21 22 22 21 19 17 17 16 16 20 25 28
45 44 47 49 49 48 47 46 42 34 32 33 34 34 34 29 28 25 24 24 23 23 23 23 22 20 19 17 17 22 22 22 24
45 48 50 49 49 48 46 47 46 44 38 36 36 37 36 38 30 28 28 25 24 25 25 25 24 22 21 20 23 24 20 19 19
48 50 50 49 48 48 47 47 48 49 47 46 40 36 36 38 34 29 29 27 30 29 27 25 22 21 20 19 19 21 20 20 20
50 50 50 49 48 47 45 46 48 50 52 51 50 47 42 41 37 29 30 29 33 34 33 29 27 26 25 26 26 26 27 26 25
50 49 49 49 48 45 47 48 50 50 57 54 55 55 54 49 42 35 32 32 34 40 46 46 46 45 43 41 39 36 34 32 29
50 52 51 49 46 52 60 64 70 68 76 66 71 69 73 76 60 40 36 34 34 45 50 48 49 50 50 48 44 40 36 34 31
51 51 56 54 64 65 74 81 82 83 85 89 98 93 86 78 62 44 41 40 38 39 50 51 50 50 51 52 53 53 51 46 37
57 70 66 68 83 81 78 88 98 95 100 99 98 99 97 90 88 77 58 54 47 53 66 62 58 53 54 54 55 57 58 53 37
98 84 84 86 99 92 90 91 98 92 96 97 99 100 98 84 92 99 94 83 82 72 66 68 71 64 60 57 59 61 60 54 38

GFSFLT1_700_rhum_111.txt.gz
RH
39 16 15 14 17 15 15 15 20 23 23 22 23 24 24 26 26 28 29 25 21 18 16 14 14 14 12 12 11 11 11 15 17
30 17 15 15 16 16 19 22 26 24 25 25 27 27 28 29 28 29 26 24 21 18 17 17 16 15 13 12 12 13 14 18 22
22 17 16 17 16 18 25 28 27 27 27 29 28 28 28 29 28 26 24 21 17 18 25 25 22 16 12 11 13 32 23 24 29
21 17 16 15 16 22 29 30 30 32 31 31 29 28 28 28 26 24 22 18 19 25 27 27 24 18 13 14 25 33 25 20 24
20 17 16 14 16 26 30 31 34 35 34 33 29 26 24 26 24 23 19 18 23 28 25 23 19 15 13 15 28 20 21 22 22
18 18 16 14 21 27 33 35 36 38 37 34 31 26 22 19 19 16 16 20 25 26 26 22 18 16 14 18 16 15 16 17 18
18 19 16 17 25 32 38 41 41 40 38 34 29 24 20 18 18 18 22 24 24 24 21 20 19 17 16 15 12 12 15 16 17
18 18 16 22 30 36 38 41 41 40 39 35 28 22 20 19 24 26 24 23 25 21 20 19 20 18 18 18 16 14 15 17 16
20 18 20 32 39 41 43 43 43 42 42 36 28 27 27 25 27 24 25 25 22 20 20 20 21 20 19 20 23 14 15 16 18
21 18 32 42 45 46 45 43 40 38 30 28 27 31 25 23 24 25 24 22 21 21 20 20 21 21 20 18 16 16 15 18 20
19 27 38 48 48 46 45 45 42 38 33 29 28 28 28 27 25 23 22 23 22 22 22 22 22 22 21 20 18 18 21 21 20
23 34 47 48 44 47 48 46 43 37 34 33 33 31 30 28 24 23 23 24 24 24 24 25 25 24 23 22 21 22 22 21 20
28 41 48 46 47 49 49 48 47 46 45 41 36 36 35 33 32 28 25 26 27 26 27 28 26 24 23 22 20 19 20 22 24
35 48 47 48 51 50 49 48 48 48 49 50 50 46 42 38 39 35 32 30 29 29 31 32 28 26 26 26 27 29 30 30 31
45 50 49 51 51 49 49 48 49 50 52 51 54 51 51 51 46 41 41 33 32 31 34 36 43 45 45 44 42 41 40 38 37
49 50 50 51 50 49 50 48 45 46 52 52 59 56 58 57 52 51 46 41 34 33 34 41 48 48 49 49 49 48 46 45 45
49 50 50 50 50 51 49 46 49 59 63 74 74 87 77 63 56 63 69 54 38 36 34 39 50 50 49 50 52 52 53 53 54
49 48 49 50 50 56 55 56 63 76 80 88 89 98 95 87 79 78 79 55 42 40 39 39 47 54 56 54 54 54 54 57 58
53 53 50 52 55 60 68 77 72 82 94 83 77 99 100 99 97 94 94 94 94 80 64 68 65 63 69 68 64 61 62 61 61
56 61 71 81 97 98 100 97 96 94 93 84 94 98 85 100 99 99 87 95 97 99 92 95 88 73 75 79 79 74 71 67 64

GFSFLT1_700_rhum_114.txt.gz
RH
82 20 16 15 12 13 13 15 18 20 20 18 19 25 25 25 26 27 24 18 16 14 15 15 14 13 12 11 10 12 12 15 18
80 24 17 16 13 13 13 18 24 24 21 20 22 26 26 28 28 27 23 18 15 16 20 20 17 13 11 11 12 22 15 17 17
76 23 17 16 14 13 15 22 27 26 25 26 29 31 27 28 27 25 21 17 16 21 23 22 18 14 12 12 17 19 15 14 13
72 23 17 17 15 14 18 26 27 28 29 30 30 30 30 29 27 24 21 16 18 22 22 20 17 14 12 12 18 14 14 15 15
70 27 18 18 15 16 24 28 29 31 29 30 31 29 30 27 26 23 18 17 22 23 20 18 16 15 14 13 14 12 12 14 16
78 22 19 17 16 20 28 30 32 33 31 30 30 26 26 24 20 18 14 17 23 22 20 17 16 16 15 15 12 11 11 14 15
78 21 19 17 17 26 31 34 34 34 33 32 30 26 21 20 17 14 14 21 22 22 18 18 17 17 16 16 15 12 13 15 16
68 21 19 16 17 28 32 36 37 38 38 34 29 23 18 18 17 21 23 22 22 21 19 18 18 18 18 17 17 16 13 15 16
57 21 20 16 20 32 40 41 41 42 41 34 29 24 22 22 24 24 22 22 21 20 18 18 19 19 19 18 18 16 17 18 21
39 21 21 18 29 36 40 43 44 44 39 33 26 25 24 24 22 20 22 22 19 19 20 20 21 21 21 20 20 20 20 21 21
22 22 21 25 36 40 45 46 44 41 36 32 29 28 25 25 24 23 22 21 21 22 22 22 22 24 24 23 23 22 22 21 20
21 25 21 30 38 47 48 44 45 42 38 36 32 31 31 28 26 26 22 22 26 26 25 26 26 27 26 25 24 22 21 22 25
22 27 23 34 44 48 46 48 47 47 44 39 36 35 35 33 32 30 26 25 26 28 28 30 30 30 28 26 25 27 30 34 35
24 27 28 42 50 47 50 51 50 48 48 48 47 46 44 43 40 38 37 35 33 29 30 31 34 35 36 40 42 42 42 41 40
27 27 33 47 52 50 51 51 50 48 50 51 52 52 53 51 49 46 46 46 42 38 33 32 34 40 45 46 46 45 45 46 46
31 29 38 50 53 52 51 51 50 49 48 50 52 53 53 52 55 51 52 53 53 47 39 34 36 44 48 49 50 50 52 52 53
38 31 40 51 52 51 51 50 50 50 46 49 55 62 63 57 79 65 66 64 70 68 46 39 37 43 50 50 52 53 54 54 55
39 34 43 52 52 51 51 51 52 50 56 70 83 85 82 83 87 81 85 85 84 72 49 45 44 49 58 61 60 62 61 66 73
38 38 46 50 52 55 61 58 61 72 90 91 90 89 89 69 89 86 79 97 99 76 78 72 80 83 73 76 72 72 73 75 78
40 42 47 49 49 54 59 79 90 95 98 97 96 92 87 86 91 77 74 99 98 97 91 96 100 98 100 93 96 90 84 85 88

GFSFLT1_700_rhum_117.txt.gz
RH
78 68 18 16 15 13 11 11 12 15 22 24 24 24 24 24 26 25 19 16 14 14 15 14 11 10 10 9 12 14 12 12 13
74 68 33 17 16 13 11 12 15 19 23 25 27 26 26 28 29 27 20 16 13 18 18 17 14 12 10 11 13 13 12 12 13
72 69 32 19 18 13 12 14 18 22 20 25 27 29 28 28 28 24 21 14 14 20 19 18 15 12 11 11 14 11 12 14 14
79 66 28 19 18 14 13 18 21 22 22 27 28 28 28 28 27 24 20 14 16 20 19 17 15 14 13 13 13 12 11 13 15
81 62 26 20 19 14 15 21 25 23 24 28 32 31 29 28 27 25 20 16 20 22 19 16 15 15 14 15 13 11 10 12 15
86 76 30 20 19 15 16 23 25 25 25 24 27 28 27 26 24 21 17 14 20 22 19 16 15 15 15 16 16 12 12 14 16
88 88 41 20 20 16 17 24 26 25 26 26 26 27 26 22 20 17 14 17 21 21 19 17 16 16 17 17 17 17 13 15 16
88 92 48 23 21 16 19 25 28 30 30 29 26 25 21 18 16 16 19 22 21 21 18 18 18 17 18 18 18 17 17 18 20
86 90 47 23 21 16 23 30 32 34 36 32 28 22 20 20 19 20 22 21 21 20 19 19 19 19 19 19 20 20 20 21 22
90 90 67 24 21 17 23 32 36 39 39 35 31 25 23 26 25 22 20 20 20 20 21 20 21 21 22 23 23 23 23 23 22
93 91 65 24 22 21 26 34 40 47 45 36 30 26 25 27 25 24 22 22 20 21 24 23 23 24 25 26 25 24 24 23 23
89 98 74 30 24 28 32 38 43 44 40 38 33 30 28 28 28 26 25 23 23 25 27 26 26 28 29 28 27 26 26 27 32
91 96 74 32 27 33 38 42 47 45 42 43 38 35 31 30 30 29 28 28 28 27 28 29 29 30 32 33 31 33 38 39 41
99 99 40 32 31 35 41 47 49 49 48 48 46 41 34 33 33 35 37 37 37 39 35 32 30 31 33 36 41 44 44 44 44
100 95 34 34 32 38 45 50 51 50 51 50 49 49 47 47 46 48 48 49 47 50 45 43 38 34 33 37 46 48 49 50 51
100 50 31 38 32 37 50 53 51 51 52 50 49 50 51 51 50 50 48 47 51 53 60 56 47 39 36 43 49 50 50 51 53
100 98 73 39 30 42 52 54 51 52 51 50 49 50 51 51 53 56 55 63 68 75 75 72 63 46 40 39 50 55 56 56 59
100 100 75 39 35 45 52 54 52 52 51 51 51 50 51 64 83 74 75 87 86 82 87 87 72 50 46 52 53 60 70 71 74
100 99 91 45 40 45 52 56 53 53 53 55 56 75 80 88 86 84 83 86 85 91 88 100 78 65 81 87 95 83 96 91 90
100 98 96 68 46 47 56 58 54 55 58 72 86 99 95 92 94 86 83 87 82 78 85 98 98 77 99 100 100 98 91 82 77

GFSFLT1_700_rhum_120.txt.gz
RH
53 82 54 23 19 21 13 9 10 12 15 19 19 22 23 24 26 24 16 14 12 14 14 13 12 10 9 10 12 11 11 13 13
59 75 56 32 23 23 14 9 10 14 18 19 20 24 25 27 28 27 18 14 13 18 17 15 13 11 11 12 12 11 11 13 14
68 70 64 28 25 25 17 10 11 17 19 18 21 25 27 28 29 25 20 15 15 19 18 16 13 13 12 13 12 11 10 13 14
78 76 69 33 23 23 18 11 12 17 19 19 21 25 27 28 27 25 21 16 16 20 18 16 14 14 14 14 13 11 10 12 15
82 83 72 34 24 22 18 11 13 18 19 18 20 23 26 27 27 25 22 16 16 22 20 17 15 15 15 16 15 13 12 13 15
85 90 75 40 22 22 18 13 13 17 19 20 22 24 25 25 25 23 20 16 15 20 20 16 15 15 16 17 17 17 13 14 16
82 93 82 54 25 22 20 15 14 18 20 23 24 26 24 23 22 20 16 12 16 20 20 18 17 17 17 17 18 18 17 16 19
89 92 89 76 35 31 22 16 16 20 21 24 24 25 25 21 18 17 15 16 20 21 21 19 18 18 18 18 19 20 19 20 22
77 88 88 91 37 27 22 17 21 23 24 25 27 26 23 21 18 16 16 20 22 22 21 20 19 19 19 20 22 22 22 23 23
67 86 89 92 46 26 23 18 22 28 30 29 29 30 26 22 21 21 21 22 20 21 20 20 21 22 22 23 25 25 25 26 24
83 72 89 97 75 27 25 22 25 32 38 35 31 29 28 24 24 23 21 20 21 22 22 24 24 24 26 27 28 28 28 27 27
87 88 90 93 92 29 28 24 26 30 39 39 35 30 26 28 27 24 24 23 23 23 25 26 27 28 29 30 31 32 33 33 37
79 93 93 93 100 46 30 28 32 35 40 44 39 36 32 30 29 29 27 28 30 27 27 28 29 30 31 32 32 34 37 43 43
77 93 98 92 99 35 36 37 37 41 45 46 46 43 38 32 33 31 31 32 33 34 36 37 36 35 34 33 33 35 41 47 47
72 82 95 99 99 65 37 45 47 47 52 49 50 48 46 42 37 38 42 45 48 48 50 50 49 49 46 38 36 38 42 47 49
70 78 99 100 100 90 42 52 53 52 53 52 52 50 48 48 47 49 52 54 52 53 55 61 61 63 60 52 42 39 41 48 51
76 76 96 92 100 93 44 54 54 54 56 53 53 52 51 49 50 51 52 53 54 67 78 81 81 80 79 63 45 43 48 49 59
85 89 92 92 100 98 77 52 54 56 56 55 54 53 51 50 51 52 55 62 71 77 80 84 83 88 93 73 52 61 73 82 84
96 100 99 98 88 100 89 60 64 57 58 57 56 53 53 54 52 59 72 80 82 83 84 81 79 88 100 88 73 89 100 96 93
95 98 99 98 100 99 99 77 61 59 59 57 55 55 58 59 59 73 88 92 88 90 93 82 76 89 95 99 81 96 98 96 90

GFSFLT1_700_rhum_123.txt.gz
RH
61 66 71 32 23 25 23 10 9 10 11 13 16 16 18 20 23 22 15 13 13 15 16 14 12 11 11 12 12 12 13 14 15
76 62 73 42 23 26 26 12 9 11 13 16 16 18 20 22 25 25 17 13 12 16 16 15 13 12 12 13 12 11 12 14 15
67 65 72 52 34 24 29 15 9 11 15 16 16 20 22 25 26 25 19 14 12 17 17 15 14 14 13 13 12 11 11 13 15
74 77 73 64 37 24 26 21 10 12 15 16 17 20 23 26 26 24 21 17 13 17 19 17 15 15 15 15 14 12 11 12 15
85 88 82 70 37 26 24 22 11 12 16 18 18 21 23 25 26 26 23 18 14 17 20 18 16 16 16 16 15 15 13 13 15
77 85 94 79 38 24 22 24 15 12 17 18 19 20 21 23 25 24 22 19 14 15 20 19 16 16 16 16 16 16 16 14 16
53 80 94 90 50 26 23 23 18 13 16 18 19 20 21 21 22 22 20 16 13 16 20 20 17 16 16 17 17 18 18 18 20
75 66 82 91 81 42 27 24 22 15 16 19 20 20 21 22 20 18 17 16 15 20 21 21 18 16 17 18 19 20 20 21 22
75 74 69 85 93 70 30 26 22 18 18 21 23 25 25 23 20 17 15 15 18 21 21 21 19 18 20 20 21 23 24 24 25
83 72 71 78 88 95 43 26 25 22 22 24 27 26 28 27 22 19 17 18 20 20 22 22 20 21 22 23 25 27 27 27 27
86 83 71 72 86 93 83 28 28 25 27 29 31 32 30 29 27 23 21 21 20 20 22 22 22 24 25 26 28 30 31 31 31
71 80 93 83 83 90 98 36 30 29 28 32 35 36 35 32 30 26 24 22 21 24 25 24 26 27 28 29 30 31 33 34 42
51 62 90 93 94 92 96 81 30 32 35 37 40 42 42 36 34 29 26 25 26 28 29 27 28 28 30 30 31 32 33 36 42
48 45 70 89 90 92 98 100 38 32 36 39 47 45 44 42 40 32 29 30 32 33 33 35 37 39 38 39 40 39 36 36 41
50 44 48 63 80 99 98 100 90 39 42 50 50 50 47 46 41 38 36 33 34 38 45 50 52 52 52 55 54 48 46 42 41
49 48 48 51 59 72 92 93 100 80 49 55 55 54 50 49 46 44 45 45 47 52 54 56 55 62 66 76 74 70 62 50 45
27 48 56 52 48 55 75 100 100 95 92 62 62 58 53 52 49 49 50 51 53 55 57 64 74 83 79 78 83 80 75 53 57
38 29 51 69 62 74 71 86 99 99 95 86 69 63 54 52 51 51 52 53 55 56 66 85 89 87 85 76 76 79 78 68 74
45 50 55 56 70 72 75 74 100 100 98 88 83 67 60 54 53 53 54 55 56 60 76 87 90 86 80 78 80 99 92 81 88
49 51 67 81 100 87 88 91 98 100 100 97 88 80 68 58 56 54 55 58 62 71 81 88 93 93 88 89 88 93 99 88 87

GFSFLT1_700_rhum_126.txt.gz
RH
73 63 74 33 20 20 24 13 8 9 10 11 14 15 17 19 23 20 15 13 14 16 16 13 11 11 11 12 12 12 13 14 15
83 67 74 51 22 20 21 17 9 10 12 14 15 16 18 19 23 24 18 14 13 17 16 14 13 12 12 12 12 11 11 14 15
83 73 67 66 30 21 21 19 10 11 14 16 17 17 20 22 25 25 21 16 13 17 17 15 14 13 13 13 12 11 11 12 15
87 72 69 72 38 22 21 19 13 12 16 17 18 18 20 23 25 25 21 17 13 15 19 18 15 14 14 14 14 14 12 12 14
84 95 86 77 63 30 22 21 16 14 16 20 18 20 22 23 25 26 24 21 16 14 19 20 17 15 15 14 15 15 14 13 14
65 77 85 90 81 47 26 22 20 17 19 20 20 20 23 25 24 24 24 22 20 14 15 20 18 16 15 15 16 16 17 16 16
70 66 73 88 92 75 34 25 23 19 20 23 24 22 22 23 25 24 23 22 18 14 14 18 19 17 16 17 17 17 18 18 20
67 78 57 69 87 89 72 36 26 22 19 22 26 26 24 23 23 23 22 19 17 14 16 19 20 18 17 17 18 20 21 22 23
72 72 79 66 73 88 87 73 30 26 22 21 25 27 29 28 25 22 21 18 16 16 19 21 21 19 19 20 21 22 25 26 26
77 80 81 74 76 77 92 92 58 27 26 23 26 30 31 33 31 27 22 20 19 20 22 22 22 19 21 22 23 26 28 29 29
71 78 82 85 84 75 83 92 99 44 28 25 25 28 33 36 35 33 29 24 24 24 23 24 27 24 24 25 26 28 30 31 33
57 63 82 89 88 87 76 82 99 95 35 28 26 28 31 36 38 38 34 28 26 25 26 26 26 25 27 27 28 30 31 32 33
54 56 53 61 76 85 96 87 88 98 73 31 28 33 36 37 40 40 35 30 28 28 30 32 31 27 28 29 29 31 34 35 36
49 50 49 49 48 66 89 92 91 96 94 63 33 39 40 42 45 42 38 34 30 30 32 35 38 38 40 39 40 43 46 45 44
34 33 41 49 48 45 51 79 100 94 98 96 55 42 44 46 45 46 42 40 36 35 34 37 43 48 53 54 53 55 57 60 60
40 42 44 50 46 42 40 45 48 76 99 100 99 52 51 53 49 50 45 44 41 39 39 42 51 56 56 57 62 72 72 71 69
34 31 29 28 24 32 44 39 41 45 61 88 100 90 89 55 57 61 52 52 51 48 50 51 56 59 67 72 77 74 69 63 68
36 34 23 25 27 30 26 40 67 48 47 81 98 100 94 94 68 69 63 61 65 51 52 55 57 61 79 83 82 77 67 71 75
32 18 15 17 26 41 38 44 52 69 70 72 94 95 99 98 90 73 67 72 65 55 55 58 59 63 67 88 83 77 77 77 79
26 16 16 31 37 55 51 52 70 74 80 80 79 98 100 99 96 91 79 76 71 59 60 61 64 63 72 77 93 85 82 82 81

GFSFLT1_700_rhum_129.txt.gz
RH
73 62 72 41 21 20 22 18 9 10 12 13 15 17 18 19 23 20 14 13 13 15 15 13 12 11 12 12 12 12 13 14 15
76 74 63 71 28 22 23 20 11 11 12 15 18 19 20 20 21 24 21 14 12 14 15 14 13 12 12 13 12 12 11 12 14
78 80 71 66 56 27 24 21 14 11 14 17 19 20 23 22 23 25 24 18 14 13 16 15 14 13 13 13 13 12 12 12 13
75 85 75 70 70 42 27 22 20 12 14 16 18 20 23 26 26 26 26 22 18 13 15 18 16 14 14 14 14 14 14 13 13
63 83 93 84 78 66 34 24 23 19 14 16 17 18 21 26 27 28 26 26 23 18 15 18 19 16 15 15 15 15 16 15 14
54 59 76 84 85 84 57 29 24 24 17 15 18 20 21 24 27 28 28 28 26 22 16 16 19 18 16 16 16 16 16 17 17
72 64 62 72 82 89 86 59 31 25 23 17 17 20 21 23 27 26 28 27 25 22 17 15 19 19 18 17 17 17 18 18 19
76 77 70 62 58 78 91 90 61 32 25 22 19 20 20 21 23 24 26 25 23 20 18 16 19 21 20 18 18 19 20 22 23
73 87 77 74 68 59 82 92 93 73 34 26 23 20 21 22 21 20 24 25 22 19 18 18 22 22 21 20 20 21 23 25 27
69 78 84 77 79 80 70 76 91 96 80 34 27 24 24 25 25 23 21 24 23 21 21 21 24 23 22 22 21 23 25 28 30
64 75 79 81 83 85 87 81 78 88 99 86 32 28 26 28 28 28 26 25 25 24 22 24 25 35 50 23 24 25 27 29 31
52 68 68 71 83 89 93 98 91 80 81 86 90 39 29 28 31 33 33 29 29 27 25 26 25 26 26 24 26 36 29 30 32
52 49 51 57 58 64 85 92 98 94 85 81 78 88 34 29 31 37 39 38 36 29 28 28 28 29 30 27 28 29 32 34 39
50 46 44 46 51 52 52 51 57 80 94 93 90 92 79 35 33 35 40 44 46 39 32 32 32 33 35 36 37 40 50 44 48
49 43 47 40 34 39 47 49 51 57 56 73 98 100 100 91 40 38 44 43 45 45 44 36 36 36 38 42 47 51 51 52 54
46 50 49 44 37 34 38 45 46 43 40 44 55 68 100 100 99 93 98 72 56 51 52 46 41 40 43 50 55 57 56 59 70
54 49 47 44 35 32 30 31 27 25 35 45 62 68 69 66 71 85 84 62 81 70 53 66 54 52 53 56 60 64 66 71 72
48 46 45 42 36 35 32 18 25 31 43 42 59 95 83 66 73 93 85 73 91 68 64 59 72 60 60 58 61 74 79 83 80
48 46 44 41 39 37 27 25 25 33 46 56 50 59 78 100 95 88 84 92 95 97 77 68 75 71 65 68 62 71 77 86 88
50 48 46 44 39 28 20 18 23 36 59 80 85 74 80 100 99 99 96 93 98 98 85 72 72 71 68 67 67 78 83 93 95

GFSFLT1_700_rhum_135.txt.gz
RH
64 67 63 69 44 27 27 29 12 9 10 10 10 12 16 20 17 20 14 13 12 14 15 15 13 12 12 12 13 12 12 12 14
73 71 71 63 65 45 27 27 26 10 10 11 13 14 14 16 17 23 22 18 13 12 14 15 14 13 12 12 13 12 12 12 12
68 72 72 70 60 60 45 30 28 21 10 11 13 15 15 16 17 21 24 25 20 15 13 15 15 14 13 13 13 13 13 13 13
68 66 71 76 73 62 62 45 31 29 20 12 13 15 15 15 17 20 24 25 24 21 18 14 16 18 17 15 14 14 14 14 14
65 67 68 71 77 72 68 65 50 35 30 22 13 15 16 14 15 16 24 23 25 25 23 20 16 15 18 17 16 15 14 15 16
70 67 57 62 66 76 81 78 73 61 37 29 25 16 14 14 16 16 17 18 21 23 24 24 21 16 14 17 18 16 16 16 17
76 78 74 63 56 58 68 81 83 80 60 36 28 26 22 17 15 17 19 18 18 19 21 22 21 19 15 15 18 18 17 17 18
86 81 77 74 73 68 61 60 76 89 88 70 41 30 28 27 24 18 18 19 18 19 19 19 18 18 17 16 17 19 18 18 19
77 76 78 80 80 79 77 76 61 65 84 91 87 64 42 30 29 28 23 22 21 20 20 20 18 17 16 16 17 18 19 18 20
69 66 57 60 62 73 82 81 76 72 68 77 85 92 89 59 43 31 32 26 25 23 24 23 23 21 19 17 17 32 24 19 21
62 55 49 48 52 64 78 85 84 86 90 87 79 79 80 84 93 80 43 37 32 27 26 27 28 26 23 21 32 39 40 21 24
60 56 54 50 54 56 64 72 75 74 84 94 99 99 94 88 89 89 96 73 58 39 29 28 30 30 28 24 21 23 23 22 33
74 68 57 53 52 51 54 59 60 60 61 61 69 68 79 92 100 99 90 94 86 66 38 35 31 31 31 29 25 24 25 30 32
76 66 58 57 56 54 53 52 50 50 52 52 51 52 52 52 62 89 81 93 87 91 83 46 37 36 38 35 31 28 28 32 34
71 69 61 60 60 56 53 50 45 45 43 40 40 40 49 53 56 54 55 62 60 79 88 89 63 46 45 80 63 45 36 40 40
81 71 64 63 61 59 54 48 52 49 45 35 32 35 40 44 42 47 43 54 48 52 75 86 89 73 68 77 91 92 70 37 42
80 89 69 67 64 61 59 53 52 47 45 39 33 29 27 28 30 36 41 51 62 62 58 71 78 66 73 90 86 85 53 49 59
94 90 81 70 67 62 61 59 52 47 43 41 37 36 32 30 25 22 30 43 56 47 63 63 69 66 77 81 80 81 70 65 65
100 91 84 74 72 68 64 59 52 49 46 45 44 44 41 34 26 19 35 46 53 62 83 74 83 83 78 85 87 81 87 85 80
95 96 86 86 79 75 69 63 54 51 46 37 31 30 28 24 57 43 45 54 57 66 76 88 93 87 87 78 84 86 94 98 75

GFSFLT1_700_rhum_141.txt.gz
RH
68 65 62 65 67 48 32 32 34 19 7 8 8 9 10 14 19 18 14 12 11 12 14 14 14 13 12 12 12 12 12 12 12
79 74 71 72 64 60 52 37 32 32 15 8 9 10 11 15 17 17 19 20 15 12 11 12 14 14 13 13 13 13 13 13 13
69 64 71 75 73 67 60 53 40 34 33 16 8 10 11 13 15 16 17 18 20 21 18 15 12 12 13 14 14 13 13 14 14
69 66 71 75 72 74 68 65 54 39 32 32 21 10 10 12 14 14 15 17 20 22 23 22 20 17 14 12 14 14 14 14 14
80 73 72 72 74 76 78 75 65 52 37 32 32 27 14 11 13 14 13 14 15 18 21 22 23 22 21 18 14 13 14 14 14
83 84 82 70 70 75 79 81 77 70 57 38 35 34 33 24 15 14 14 13 14 14 15 16 18 20 21 20 18 16 14 15 16
77 80 83 81 71 68 71 72 84 86 80 70 49 38 39 34 31 23 19 17 16 15 15 14 15 15 16 16 17 17 16 15 16
73 74 81 82 78 75 69 62 64 73 83 86 77 61 47 39 36 33 30 28 27 25 22 20 18 16 16 15 15 15 14 15 15
80 81 87 88 85 84 82 80 72 70 70 76 90 89 80 69 61 53 45 36 32 32 29 28 26 23 21 20 18 16 16 15 16
94 91 93 83 85 96 95 89 83 84 83 82 74 77 88 92 91 87 82 70 62 53 41 36 32 32 28 26 25 23 21 20 30
94 93 89 85 86 87 82 91 88 86 88 89 84 81 79 79 79 82 86 87 90 86 79 66 47 44 40 33 32 31 28 24 23
78 86 91 87 79 73 82 77 71 72 75 86 91 93 94 95 97 95 91 88 88 84 82 82 84 76 65 49 38 34 36 42 48
79 82 88 90 88 85 86 69 61 60 70 73 75 78 79 90 98 99 87 89 89 86 86 88 85 86 88 75 60 46 39 48 50
73 98 77 75 88 88 88 78 80 56 55 53 54 55 54 55 57 59 56 52 48 48 50 55 69 81 86 94 87 79 63 44 48
94 75 98 86 88 83 86 92 79 69 64 59 50 48 46 43 40 39 39 37 34 34 41 46 57 62 80 73 87 91 90 71 54
28 68 69 85 95 87 92 98 96 74 69 62 56 52 51 48 47 44 42 39 32 29 28 27 33 36 40 47 51 92 94 83 67
12 34 46 70 92 97 96 97 97 80 72 65 61 54 50 49 49 46 43 41 38 33 30 31 30 25 22 28 49 58 72 87 89
13 15 40 75 92 98 93 97 95 85 74 67 63 60 57 53 48 48 46 42 37 35 34 32 32 29 25 29 32 44 67 68 79
17 12 41 78 90 99 98 100 98 90 76 71 66 65 63 63 56 51 46 32 24 22 25 29 28 23 34 33 39 52 76 82 76
22 15 53 56 83 100 99 93 94 93 82 75 72 69 69 71 68 56 35 23 30 37 26 30 33 62 79 60 56 60 72 79 89

GFSFLT1_700_rhum_144.txt.gz
RH
68 69 68 63 72 62 40 32 33 34 18 8 8 9 9 10 13 18 16 12 11 11 12 14 14 13 12 12 12 12 12 12 12
75 80 77 72 74 72 62 46 34 32 32 12 8 10 11 13 15 16 18 19 18 13 11 11 12 13 13 13 12 12 12 12 12
73 73 76 69 74 76 70 62 51 37 32 28 12 10 12 14 14 15 16 17 19 20 20 18 16 13 11 12 13 13 13 13 13
82 78 70 65 74 76 76 72 67 53 37 31 30 14 12 14 15 14 15 15 17 19 20 21 21 21 20 17 14 13 14 14 14
90 85 79 73 74 75 75 77 80 68 52 39 32 32 20 12 14 15 14 14 14 15 16 17 18 20 21 21 20 17 15 14 15
88 92 88 84 80 76 73 76 81 79 65 53 47 37 31 25 17 15 14 14 14 14 14 15 14 15 16 17 19 19 18 16 15
71 75 86 89 88 85 77 73 76 79 84 72 61 54 47 34 29 25 21 20 19 18 17 16 16 15 15 15 15 15 16 16 16
55 59 69 78 84 88 80 71 67 67 74 87 85 76 65 51 41 33 30 29 28 26 27 25 24 21 19 17 16 16 15 14 14
51 66 70 76 86 89 89 83 78 72 66 66 72 80 83 81 71 57 47 41 37 34 32 42 54 30 28 25 23 22 20 19 18
58 75 72 76 85 95 91 90 94 85 79 75 75 72 73 79 82 82 83 82 78 71 62 54 42 45 43 35 31 28 26 25 24
66 87 88 92 94 99 94 91 96 96 91 85 85 86 83 75 73 74 75 78 80 79 79 82 81 74 53 58 59 40 36 30 30
84 98 100 100 98 94 96 98 99 94 92 84 85 83 87 85 86 86 86 86 86 88 85 84 85 84 82 84 81 74 70 60 53
82 82 97 98 99 99 92 92 91 91 92 89 79 81 87 88 86 88 84 88 91 90 90 83 69 74 83 91 88 84 79 67 59
16 53 70 87 98 99 98 96 97 99 94 85 82 77 69 64 62 57 55 57 62 58 51 47 45 47 50 56 75 85 85 88 84
11 20 56 100 84 90 97 99 100 100 98 87 81 73 59 53 51 48 44 42 41 40 37 34 32 32 35 39 52 58 84 79 92
14 11 14 70 87 95 83 86 94 95 98 88 80 70 58 54 52 51 49 47 44 42 40 38 34 30 27 26 25 31 42 53 56
23 15 11 22 56 92 99 98 95 98 100 97 90 81 67 60 58 55 51 50 48 45 43 42 39 36 35 32 31 30 24 24 38
34 23 16 12 16 46 93 85 100 99 100 99 98 96 72 64 61 58 56 55 53 52 49 43 30 27 29 34 34 32 28 27 32
35 26 21 16 13 19 41 76 98 100 100 100 100 96 77 68 61 58 56 56 54 51 42 29 22 21 20 23 28 27 25 28 41
38 29 24 22 15 39 76 95 89 87 97 98 99 97 78 71 71 68 61 57 54 42 31 25 43 64 47 56 52 69 55 41 43

GFSFLT1_700_rhum_147.txt.gz
RH
69 68 71 71 70 78 61 36 30 31 30 13 8 9 8 9 10 16 17 13 12 11 12 13 14 13 13 12 12 11 11 12 12
74 73 78 80 77 76 80 67 49 36 32 28 10 10 9 10 11 14 17 19 18 15 12 11 11 12 13 13 12 12 12 12 12
81 79 73 79 79 76 81 81 66 54 40 33 23 11 12 13 14 15 16 17 18 19 20 19 17 15 13 12 12 12 13 14 13
82 86 83 75 71 72 81 82 78 68 59 43 32 22 13 14 14 15 16 17 18 19 20 21 22 22 21 20 18 15 14 14 14
82 87 85 84 79 77 83 83 82 80 79 60 41 31 25 15 15 15 15 16 16 17 17 18 18 19 20 21 21 20 18 16 15
80 83 87 88 86 81 81 84 84 84 82 75 59 44 30 28 20 15 14 15 15 15 14 14 15 15 16 16 17 18 19 18 18
72 82 83 82 88 88 86 85 83 82 86 86 75 65 51 36 30 28 23 19 18 18 18 17 16 16 16 15 14 14 15 15 15
53 64 76 72 68 79 90 90 87 79 79 85 85 82 77 67 51 37 34 32 30 28 26 26 34 24 22 21 19 18 17 16 16
27 50 58 59 67 64 66 81 87 82 72 68 68 79 80 78 76 68 55 44 40 40 36 36 35 58 39 30 28 26 24 22 20
16 33 50 53 67 80 81 80 87 91 85 78 77 70 69 71 70 75 80 79 74 72 73 71 67 63 52 58 53 41 34 30 29
10 19 83 49 57 85 90 89 91 92 97 95 86 76 76 77 76 78 80 80 83 85 88 85 83 82 80 78 78 70 73 68 52
8 9 37 51 80 99 96 100 100 99 99 93 90 92 88 88 88 84 76 74 77 80 81 84 88 86 88 92 90 88 87 86 76
9 9 10 34 94 100 99 100 99 100 96 99 99 100 100 98 86 87 87 86 85 87 87 92 89 88 77 61 58 67 73 88 89
19 11 11 27 55 89 99 100 98 99 100 99 97 100 97 93 93 94 84 74 70 68 65 67 58 48 41 38 38 43 47 47 70
36 28 14 14 34 95 97 98 98 100 100 100 100 97 92 92 94 80 60 54 50 46 43 41 40 38 35 32 29 28 29 33 49
54 50 36 14 16 36 73 86 100 99 97 93 99 95 91 88 84 70 53 50 48 48 47 46 44 42 40 39 37 34 29 26 23
70 68 59 32 14 17 37 96 89 99 100 99 99 98 91 93 78 58 55 54 54 52 50 48 47 46 45 43 39 34 32 32 30
93 84 67 45 22 14 20 36 100 97 99 98 96 98 95 84 74 63 62 61 60 57 56 55 55 53 50 42 33 23 22 26 32
99 82 61 38 29 26 13 15 52 68 98 96 100 100 99 98 96 93 77 80 62 62 60 58 53 46 40 29 24 30 32 21 23
94 62 46 32 28 25 18 14 14 32 62 78 98 100 99 99 98 88 76 70 66 65 60 59 49 43 33 23 22 60 66 52 57

GFSFLT1_700_rhum_150.txt.gz
RH
70 72 70 72 72 72 75 71 39 30 29 27 13 9 10 9 12 13 17 14 13 13 14 15 15 14 13 13 12 12 12 12 12
68 70 72 75 78 78 78 79 77 54 35 30 26 11 10 10 11 15 18 18 16 13 12 12 12 13 14 14 14 13 12 12 12
65 74 74 75 75 80 78 78 83 76 59 39 29 24 11 11 13 15 17 18 20 20 20 18 16 14 12 12 11 12 13 13 13
63 67 77 80 78 75 73 72 80 82 75 64 44 28 21 12 13 15 16 16 17 19 21 21 21 20 20 19 18 16 15 14 14
69 74 72 80 84 82 77 76 80 83 82 78 73 42 29 22 15 13 14 15 15 17 18 19 20 21 21 21 21 20 20 18 17
44 57 75 82 82 82 82 81 83 85 84 81 78 65 42 30 27 19 14 13 14 14 15 16 16 16 16 17 17 17 17 18 18
20 41 50 76 85 91 87 84 83 85 84 84 83 79 59 44 34 31 27 19 15 14 14 14 15 15 15 14 15 15 14 14 14
14 18 32 47 74 84 88 90 89 87 88 86 82 84 82 61 48 42 37 33 30 27 26 25 26 27 24 24 22 20 19 18 17
8 10 17 31 45 64 78 76 82 88 90 90 84 78 83 88 75 63 53 44 37 35 35 36 36 37 45 53 43 34 33 29 27
8 8 8 14 31 52 61 64 65 70 74 83 86 72 70 70 79 81 76 66 58 51 46 45 50 53 56 62 69 67 66 53 49
12 7 8 8 11 39 57 60 63 72 77 82 85 85 75 71 72 70 76 78 79 78 74 74 77 81 82 82 83 84 85 84 81
24 19 12 8 9 20 76 80 96 78 89 87 86 87 86 83 76 77 81 79 81 85 87 81 83 84 88 89 89 92 94 90 89
26 29 25 16 10 14 63 99 82 83 93 93 94 93 91 88 84 86 87 86 85 80 83 86 88 89 89 85 87 81 71 67 62
14 13 36 31 18 12 19 65 71 99 92 89 98 89 85 87 94 90 98 94 93 97 96 90 86 84 88 77 57 43 38 38 41
24 22 36 51 36 18 13 38 74 91 81 100 96 89 96 100 100 95 100 94 94 89 80 69 62 54 44 39 38 36 34 31 28
28 33 44 63 61 44 18 27 79 64 92 94 100 100 98 100 100 96 97 94 96 91 60 48 45 44 44 44 43 43 41 39 37
54 62 69 74 77 62 37 17 53 85 92 94 100 99 93 99 100 100 93 84 72 66 53 50 50 49 49 48 49 49 47 44 40
80 90 100 100 95 74 56 27 31 40 66 78 95 100 95 100 100 100 97 98 94 55 54 54 53 54 54 52 51 49 48 44 37
87 96 94 96 90 71 53 34 22 20 42 77 99 100 99 100 100 100 97 74 62 60 59 67 75 64 59 54 48 44 36 33 26
89 82 94 90 77 68 48 33 30 24 24 45 61 97 93 100 100 99 100 97 71 65 78 97 93 71 61 56 53 49 34 27 25

GFSFLT1_700_rhum_153.txt.gz
RH
67 68 70 67 68 71 72 76 73 41 32 30 30 18 9 9 14 26 19 13 12 12 13 14 14 13 13 12 12 12 12 12 11
63 63 67 72 69 72 75 78 79 82 62 40 30 28 15 9 9 9 13 17 14 12 11 11 13 14 14 14 13 13 12 12 12
64 65 64 70 73 72 75 79 79 78 81 67 47 33 27 13 10 10 12 16 18 18 15 14 12 11 10 10 11 11 11 12 12
62 76 69 69 75 77 75 75 79 78 83 82 68 51 33 27 14 12 12 13 15 16 18 19 19 19 18 17 16 15 14 14 13
19 32 54 70 72 77 81 76 76 76 81 85 83 75 54 33 28 17 12 13 14 14 15 17 19 20 20 21 21 20 20 19 18
16 16 22 36 51 71 79 84 79 79 80 82 84 84 76 45 34 31 23 14 13 14 14 14 15 16 16 16 16 16 16 16 16
8 14 22 25 47 53 72 82 87 85 81 84 82 79 82 69 43 36 36 26 17 14 13 14 13 13 13 13 13 13 13 13 13
10 9 9 17 36 45 57 82 87 87 86 84 84 82 80 83 72 50 40 34 31 26 20 19 19 20 21 22 24 24 23 22 22
9 6 7 9 10 38 62 66 78 91 89 91 89 85 82 80 83 76 62 47 39 35 33 31 30 30 33 42 52 48 39 36 37
21 18 14 7 7 9 23 50 65 84 93 86 90 93 87 81 78 82 80 72 64 51 41 37 36 37 38 54 63 70 73 67 68
24 23 24 22 16 8 25 25 35 65 81 86 77 75 80 82 76 72 70 78 76 71 63 54 50 52 58 65 73 77 80 82 83
10 10 20 29 30 24 13 30 35 39 56 75 83 80 76 79 81 77 69 69 77 77 74 71 73 72 80 85 84 80 81 84 87
9 12 16 14 19 34 32 16 20 48 75 78 68 86 88 88 87 88 81 76 75 79 82 84 88 88 84 86 85 87 86 88 83
16 16 14 13 20 21 42 38 16 36 58 79 80 93 86 95 99 96 96 90 79 79 82 88 86 86 88 90 91 92 88 69 50
23 21 25 30 25 34 42 53 34 20 52 81 94 97 90 99 93 94 99 95 94 91 93 92 97 99 97 91 94 81 48 38 36
36 40 41 46 48 44 55 64 54 24 40 56 74 88 97 100 97 98 100 94 99 96 99 100 94 85 74 54 44 42 42 42 41
41 51 62 71 73 92 99 80 69 52 35 67 60 99 94 98 96 96 99 100 100 98 98 100 99 89 82 50 46 46 46 44 43
50 59 72 83 85 89 98 99 71 62 43 57 80 92 85 89 99 100 100 100 99 98 100 95 68 62 50 50 50 51 54 55 50
52 65 71 87 86 91 96 88 79 74 51 57 63 74 77 98 98 100 100 100 100 99 100 83 78 58 51 55 60 66 62 60 54
54 66 71 64 87 97 98 91 80 64 58 56 47 38 55 98 98 98 98 95 98 100 97 98 79 63 58 65 71 76 68 65 57

GFSFLT1_700_rhum_156.txt.gz
RH
62 67 67 65 66 67 70 72 78 74 50 35 32 31 23 10 9 18 41 22 12 12 13 13 13 13 12 12 12 12 12 12 11
55 55 58 62 62 69 69 71 75 78 79 70 49 35 31 21 9 8 9 17 14 12 12 13 14 14 13 13 13 13 12 12 12
18 28 55 62 63 61 71 72 74 78 78 78 75 57 39 32 19 9 9 9 13 16 13 12 11 12 12 13 13 13 12 12 12
16 17 22 48 64 69 66 73 74 76 78 75 78 76 58 42 33 21 10 11 12 15 17 17 17 16 15 14 14 14 14 14 14
10 12 16 19 48 58 73 75 75 79 79 79 76 81 76 64 45 35 25 11 11 13 14 16 17 18 19 20 20 20 20 20 19
10 9 9 12 18 38 53 62 75 80 82 80 80 81 80 77 72 48 36 24 13 12 13 13 14 16 17 18 18 17 16 15 15
7 8 10 10 9 12 27 42 61 78 80 81 84 83 80 83 81 70 48 35 27 16 12 13 13 13 14 14 14 14 13 13 13
15 13 9 7 9 9 10 23 39 66 79 87 89 86 88 84 83 81 68 47 34 32 23 16 14 14 13 14 16 19 20 22 23
18 19 20 18 14 8 9 17 32 46 52 80 93 92 88 88 85 82 79 70 44 39 36 30 25 24 26 27 32 35 36 35 34
9 11 16 20 22 22 15 10 30 38 54 64 75 96 90 88 88 87 81 80 68 52 45 38 33 32 32 46 68 69 62 61 64
10 9 9 10 12 24 26 23 10 22 52 56 69 77 92 89 91 85 86 80 84 75 62 50 43 37 35 37 45 60 71 75 79
8 8 9 9 9 12 15 26 30 13 36 54 68 79 79 88 88 88 78 80 77 84 83 71 60 51 45 44 50 64 79 82 84
10 10 10 11 14 15 14 17 18 27 19 40 64 62 79 83 82 82 86 79 77 77 77 81 75 63 60 61 63 78 87 87 89
12 15 22 24 22 22 25 26 26 24 30 23 50 80 67 76 77 79 85 93 88 76 83 77 84 79 71 77 84 89 90 94 95
14 20 30 32 34 37 36 39 40 36 29 39 24 58 97 95 88 77 82 98 99 91 92 97 90 89 88 94 96 91 96 99 99
17 27 37 45 51 60 58 62 75 46 45 54 34 35 94 99 90 90 99 94 95 100 100 99 99 99 97 100 100 100 99 93 64
19 30 40 48 52 69 76 72 95 94 64 73 66 28 59 86 100 94 91 97 96 99 100 100 99 89 100 96 94 94 49 46 44
21 32 40 50 55 73 72 82 91 94 82 89 80 55 59 73 78 82 85 92 99 100 98 98 100 90 99 98 89 87 91 56 50
23 28 40 48 58 71 79 80 79 80 83 83 91 57 74 94 83 94 94 91 100 100 100 98 94 100 98 98 95 84 55 52 55
22 27 27 34 51 60 95 91 90 84 84 84 70 50 62 58 50 75 91 95 78 62 75 89 91 83 79 90 81 62 63 68 72